Regional Weather Roundup
Issued by NWS

Home | Current Version | Previous Version | Text Only | Print | Product List | Glossary On
Versions: 1 2 3 4 5 6 7 8 9 10 11 12 13 14 15 16 17 18 19 20 21 22 23 24 25 26 27 28 29 30 31 32 33 34 35 36 37 38 39 40 41 42 43 44 45 46 47 48 49 50
393
ASUS43 KLSX 261257
RWRMO

WEATHER SUMMARY FOR MISSOURI
NATIONAL WEATHER SERVICE SPRINGFIELD MO
800 AM CDT WED APR 26 2017

NOTE: "FAIR" INDICATES FEW OR NO CLOUDS BELOW 12,000 FEET WITH NO
       SIGNIFICANT WEATHER AND/OR OBSTRUCTIONS TO VISIBILITY.
       CURRENT SKY AND/OR WEATHER CONDITIONS ARE NOT AVAILABLE FOR
       CHILLICOTHE AND FARMINGTON.

MOZ001>031-035>038-043-044-053-054-261400-
...NORTHERN AND WESTERN MISSOURI...

CITY           SKY/WX    TMP DP  RH WIND       PRES   REMARKS
KANSAS CTY INT CLOUDY    41  39  93 NW14G21   29.60S
LEE`S SUMMIT   CLOUDY    44  43  96 NW15G21   29.58F FOG
ST JOSEPH      CLOUDY    41  39  93 NW17      29.63R
CHILLICOTHE      N/A     45  43  93 NW5       29.58R

$$
MOZ066>068-077>081-088>096-101>105-261400-
...SOUTHWEST MISSOURI...

CITY           SKY/WX    TMP DP  RH WIND       PRES   REMARKS
SPRINGFIELD    LGT RAIN  59  57  93 VRB6      29.50F
JOPLIN         LGT RAIN  50  49  96 N10       29.58R FOG
BRANSON        TSTM      57  57 100 CALM      29.55R

$$
MOZ032>034-039>042-045>050-055>058-069>072-261400-
...CENTRAL MISSOURI...

CITY           SKY/WX    TMP DP  RH WIND       PRES   REMARKS
COLUMBIA       NOT AVBL
JEFFERSON CITY CLOUDY    62  58  86 W8        29.51F
ROLLA          CLOUDY    58  56  93 SW15      29.52R
SEDALIA        CLOUDY    51  51 100 NW10      29.57R

$$
MOZ051-052-059>065-261400-
...EAST CENTRAL MISSOURI...

CITY           SKY/WX    TMP DP  RH WIND       PRES   REMARKS
ST LOUIS INTL  LGT RAIN  66  56  70 S9        29.49R

$$
MOZ072>076-082>087-097>100-106>115-261400-
...SOUTH CENTRAL AND SOUTHEAST MISSOURI...

CITY           SKY/WX    TMP DP  RH WIND       PRES   REMARKS
CAPE GIRARDEAU MOSUNNY   67  59  75 S12       29.57F
POPLAR BLUFF   MOSUNNY   68  62  81 S10       29.57S
WEST PLAINS    CLOUDY    63  56  78 S10       29.58R

$$



USA.gov is the U.S. government's official web portal to all federal, state and local government web resources and services.